AEHF-1 (USA 214)

Last updated on Thu Sep 10 2026 00:02:56 GMT+0000 (Coordinated Universal Time)

1 36868U 10039A 26252.59155500 .00000131 00000+0 00000+0 0 9994 2 36868 8.4296 66.9312 0003684 95.6464 68.9990 1.00275005 54509
UTC large
Height (km)
Speed (km/s)
/
Latitude / Longitude
Inclination (degrees)
Orbital Period (minutes)
Azimuth
Elevation
Range (km)
Doppler Factor

Next 0 passes for location: London (51.5072 / 0.1276)

No passes found over London.
AEHF-1 (USA 214)